Christmas Island, Christmas Island

3:56 PM +07 on June 26, 2017 (GMT +0700)
Christmas Island

Weather History for YPXM - January, 2013

Change the Weather History Date:

Friday, January 25, 2013

  Actual Average Record
Temperature  
Mean Temperature 77 °F -  
Max Temperature 82 °F 79 °F 84 °F (1998)
Min Temperature 72 °F 71 °F 32 °F (2006)
Cooling Degree Days 12    
Growing Degree Days 27 (Base 50)    
Moisture  
Dew Point 70 °F    
Average Humidity 78    
Maximum Humidity 95    
Minimum Humidity 54    
Precipitation  
Precipitation 0.01 in - - ()
Sea Level Pressure  
Sea Level Pressure 29.87 in    
Wind  
Wind Speed 2 mph ()    
Max Wind Speed 7 mph    
Max Gust Speed -    
Visibility 6.2 miles    
Events Rain    
Averages and records for this station are not official NWS values.
T = Trace of Precipitation, MM = Missing Value Source: Averaged Metar Reports

Daily Weather History Graph

Daily Weather History Graph

Search for Another Location

Airport or City:

Trip Planner

Search our weather history database for the weather conditions in past years. The results will help you decide how hot, cold, wet, or windy it might be!

Date:

Astronomy

Jan. 25, 2013 Rise Set
Actual Time 5:51 AM +07 6:27 PM +07
Civil Twilight 5:29 AM +07 6:50 PM +07
Nautical Twilight 5:02 AM +07 7:16 PM +07
Astronomical Twilight 4:36 AM +07 7:42 PM +07
Moon 4:57 PM +07 (1/25) 4:02 AM +07 (1/25)
Length of Visible Light 13h 20m
Length of Day
12h 36m
Waxing Gibbous, 96% of the Moon is Illuminated
Jan 25
Waxing Gibbous
Jan 27
Full
Feb 3
Last Quarter
Feb 10
New
Feb 18
First Quarter

Hourly Weather History & Observations

Time (+07) Temp. Heat Index Dew Point Humidity Pressure Visibility Wind Dir Wind Speed Gust Speed Precip Events Conditions
12:00 AM 74 °F - 72 °F 90% 29.88 in - WSW 2.3 mph - -  
12:00 AM 73.4 °F - 71.6 °F 94% 29.92 in 6.2 mi WSW 2.3 mph - N/A   Unknown
1:00 AM 73 °F - 72 °F 95% 29.86 in - Calm Calm - -  
1:00 AM 73.4 °F - 71.6 °F 94% 29.89 in 6.2 mi Calm Calm - N/A   Scattered Clouds
2:00 AM 73.4 °F - 71.6 °F 94% 29.89 in 6.2 mi SSW 3.5 mph - N/A   Scattered Clouds
3:00 AM 73 °F - 72 °F 95% 29.83 in - Calm Calm - -  
3:00 AM 73.4 °F - 71.6 °F 94% 29.86 in 6.2 mi Calm Calm - N/A   Unknown
4:00 AM 73 °F - 72 °F 95% 29.82 in - SW 3.5 mph - -  
4:00 AM 73.4 °F - 71.6 °F 94% 29.86 in 6.2 mi SW 3.5 mph - N/A   Unknown
5:00 AM 73.4 °F - 59.0 °F 61% 29.86 in 6.2 mi Calm Calm - N/A   Unknown
6:00 AM 72 °F - 60 °F 56% 29.83 in - Calm Calm - -  
6:00 AM 71.6 °F - 59.0 °F 64% 29.86 in 6.2 mi Calm Calm - N/A   Unknown
7:00 AM 76 °F - 72 °F 84% 29.84 in - SSW 3.5 mph - -  
7:00 AM 77.0 °F - 71.6 °F 83% 29.89 in 6.2 mi SSW 3.5 mph - N/A   Unknown
8:00 AM 80.6 °F 85.4 °F 73.4 °F 79% 29.89 in 6.2 mi South 3.5 mph - N/A   Unknown
9:00 AM 80 °F - 72 °F 69% 29.88 in - SSE 6.9 mph - -  
9:00 AM 80.6 °F 84.6 °F 71.6 °F 74% 29.92 in 6.2 mi SSE 6.9 mph - N/A   Scattered Clouds
10:00 AM 82 °F - 72 °F 66% 29.88 in - SSE 6.9 mph - -  
10:00 AM 82.4 °F 87.2 °F 71.6 °F 70% 29.92 in 6.2 mi SSE 6.9 mph - N/A   Mostly Cloudy
11:00 AM 82.4 °F 87.2 °F 71.6 °F 70% 29.92 in 6.2 mi SSE 5.8 mph - N/A   Overcast
12:00 PM 80 °F - 71 °F 67% 29.86 in - East 4.6 mph - -   Overcast
12:00 PM 80.6 °F 84.6 °F 71.6 °F 74% 29.89 in 6.2 mi East 4.6 mph - N/A Rain Light Rain Showers
1:00 PM 77 °F - 73 °F 85% 29.86 in - SW 5.8 mph - -  
1:00 PM 77.0 °F - 73.4 °F 89% 29.89 in 6.2 mi SW 5.8 mph - N/A Rain Light Rain Showers
2:00 PM 80.6 °F 85.4 °F 73.4 °F 79% 29.86 in 6.2 mi SE 5.8 mph - N/A   Scattered Clouds
3:00 PM 80 °F - 71 °F 67% 29.82 in - South 5.8 mph - -  
3:00 PM 80.6 °F 84.6 °F 71.6 °F 74% 29.86 in 6.2 mi South 5.8 mph - N/A   Scattered Clouds
4:00 PM 80 °F - 71 °F 69% 29.81 in - South 4.6 mph - -  
4:00 PM 80.6 °F 84.6 °F 71.6 °F 74% 29.83 in 6.2 mi South 4.6 mph - N/A   Mostly Cloudy
5:00 PM 78.8 °F - 71.6 °F 78% 29.86 in 6.2 mi South 3.5 mph - N/A   Overcast
6:00 PM 79 °F - 71 °F 69% 29.83 in - South 3.5 mph - -  
6:00 PM 78.8 °F - 71.6 °F 78% 29.86 in 6.2 mi South 3.5 mph - N/A   Scattered Clouds
7:00 PM 75 °F - 62 °F 54% 29.85 in - Calm Calm - -  
7:00 PM 75.2 °F - 60.8 °F 61% 29.89 in 6.2 mi Calm Calm - N/A   Unknown
8:00 PM 75.2 °F - 59.0 °F 57% 29.92 in 6.2 mi Calm Calm - N/A   Unknown
9:00 PM 74 °F - 70 °F 85% 29.89 in - Calm Calm - -  
9:00 PM 73.4 °F - 69.8 °F 88% 29.92 in 6.2 mi Calm Calm - N/A   Unknown
10:00 PM 73 °F - 69 °F 82% 29.90 in - Calm Calm - -  
10:00 PM 73.4 °F - 68.0 °F 83% 29.95 in 6.2 mi Calm Calm - N/A   Unknown
11:00 PM 73.4 °F - 68.0 °F 83% 29.95 in 6.2 mi Calm Calm - N/A   Unknown